Flag for China Weather past 2 weeks in Langfang, Hebei, China

Now
52 °F

Light rain. Fog.


Feels Like: 52 °F
Forecast: 42 / 58 °F
Wind: 1 mph from North

Location: Beijing Airport

Current Time: Mar 31, 2015 at 10:06:28 AM

Latest Report: Mar 31, 2015 at 9:30 AM


Visibility: 2 mi

Pressure: 29.98 "Hg

Humidity: 94%

Dew point: 50 °F

Location of LangfangLocation

Historic Weather in Langfang — Graph

°F

Langfang temperature yesterday

Maximum temperature yesterday: 73 °F (at 4:30 PM)
Minimum temperature yesterday: 54 °F (at 5:30 AM)
Average temperature yesterday: 63 °F

Past Weeks' High & Low Weather Summary

 TemperatureHumidityPressure
High77 °F (Mar 28, 3:00 PM)93% (Mar 17, 2:30 AM)30.54 "Hg (Mar 17, 2:30 AM)
Low28 °F (Mar 23, 5:30 AM)5% (Mar 21, 3:30 PM)29.71 "Hg (Mar 30, 3:30 PM)
Average55 °F36%30.12 "Hg
* Reported Mar 16 8:00 AM — Mar 31 8:30 AM, Langfang, Weather by CustomWeather, © 2015

Note: Actual official high and low records may vary slightly from our data, if they occured in-between our weather recording intervals... More about our weather records

Advertising

Langfang weather history for previous 24 hours

 ConditionsComfort  
Time TempWeatherWind HumidityBarometerVisibility
8:30 AM
Tue, Mar 31
54 °FLight rain. Fog.3 mph82%29.92 "Hg2 mi
8:00 AM55 °FLight rain. Fog.3 mph77%29.89 "Hg2 mi
7:30 AM55 °FLight rain. Fog.3 mph82%29.89 "Hg2 mi
7:00 AM55 °FFog.1 mph82%29.86 "Hg2 mi
6:30 AM55 °FFog.1 mph82%29.86 "Hg3 mi
6:00 AM55 °FFog.3 mph82%29.83 "Hg3 mi
5:30 AM55 °FFog.1 mph82%29.83 "Hg3 mi
5:00 AM57 °FFog.3 mph77%29.83 "Hg3 mi
4:30 AM57 °FLight rain. Fog.3 mph77%29.80 "Hg3 mi
4:00 AM57 °FLight rain. Clear.6 mph77%29.80 "Hg4 mi
3:30 AM59 °FLight rain. Clear.6 mph68%29.80 "Hg4 mi
3:00 AM61 °FLight rain. Clear.6 mph63%29.80 "Hg4 mi
2:30 AM61 °FClear.6 mph63%29.80 "Hg4 mi
2:00 AM61 °FClear.1 mph63%29.83 "Hg10 mi
1:30 AM63 °FPassing clouds.6 mph59%29.80 "HgN/A
1:00 AM63 °FClear.6 mph59%29.80 "Hg10 mi
12:30 AM63 °FClear.6 mph59%29.80 "Hg10 mi
12:00 AM63 °FPassing clouds.6 mph59%29.80 "HgN/A
11:30 PM
Mon, Mar 30
64 °FPassing clouds.6 mph56%29.80 "HgN/A
11:00 PM64 °FPassing clouds.6 mph56%29.80 "HgN/A
10:30 PM64 °FPassing clouds.8 mph56%29.80 "HgN/A
10:00 PM64 °FClear.6 mph56%29.80 "Hg4 mi
9:30 PM66 °FClear.6 mph52%29.80 "Hg4 mi
9:00 PM66 °FClear.6 mph52%29.80 "Hg4 mi
8:30 PM66 °FClear.8 mph52%29.77 "Hg4 mi
8:00 PM66 °FClear.6 mph52%29.77 "Hg4 mi
7:30 PM68 °FClear.6 mph49%29.77 "Hg4 mi
7:00 PM68 °FHaze.6 mph49%29.74 "Hg3 mi
6:30 PM68 °FHaze.3 mph49%29.74 "Hg3 mi
6:00 PM70 °FHaze.6 mph46%29.74 "Hg3 mi
5:30 PM72 °FHaze.1 mph44%29.71 "Hg3 mi
5:00 PM72 °FHaze.6 mph41%29.71 "Hg3 mi
4:30 PM73 °FHaze.6 mph38%29.71 "Hg3 mi
4:00 PM72 °FHaze.3 mph41%29.71 "Hg3 mi
3:30 PM72 °FHaze.10 mph41%29.71 "Hg3 mi
3:00 PM72 °FHaze.3 mph44%29.74 "Hg2 mi
2:30 PM72 °FHaze.8 mph44%29.74 "Hg2 mi
2:00 PM70 °FHaze.3 mph46%29.74 "Hg2 mi
1:30 PM68 °FHaze.6 mph49%29.77 "Hg2 mi
1:00 PM68 °FHaze.8 mph46%29.77 "Hg2 mi
12:30 PM68 °FHaze.8 mph46%29.80 "Hg2 mi
12:00 PM68 °FHaze.6 mph43%29.80 "Hg2 mi
11:30 AM66 °FHaze.3 mph46%29.80 "Hg2 mi
10:30 AM64 °FHaze.6 mph46%29.83 "Hg3 mi
10:00 AM63 °FHaze.6 mph49%29.86 "Hg3 mi
Weather by CustomWeather, © 2015

See weather overviewHow to use our weather pages